Location: Drocourt
(49.0571°N, 1.7669°E)
Time: 19:21:54
(UTC+00:00)

S-56A Canister/Altair - Pass Details

Date: 17 April 2024
Orbit: 638 x 2488 km, 38.9° (Epoch: 20 May)

Event Time Altitude Azimuth Distance (km) Brightness Sun altitude
Rises 22:36:56 0° 271° (W) 4,420 11.7 -27.8°
Reaches altitude 10° 22:40:00 10° 261° (W) 3,699 11.1 -28.0°
Enters shadow 22:47:41 30° 210° (SSW) 2,958 10.1 -28.4°
Maximum altitude 22:48:14 30° 205° (SSW) 2,984 - -28.4°
Drops below altitude 10° 22:59:01 10° 152° (SSE) 4,883 - -28.9°
Sets 23:03:50 0° 143° (SE) 6,047 - -29.1°
